sat.trackr.live / text

‹ back to catalog

USA 286

NORAD 43446 · 2018-036F

PAYLOAD ACTIVE UNKNOWN

§ Identity

Operator
Country
US
Launch date
2018-04-14
Launch site
AFETR
Launch vehicle
Mass (kg)
RCS (m²)

External: N2YO · Heavens-Above · Gunter

§ Orbital elements

Epoch: 2026-09-07T04:01:38.580960Z

Period
1,410.12 min
Inclination
7.3080°
Eccentricity
0.0011004
Mean motion
1.02119058 rev/d
Perigee alt
35,230.7 km
Apogee alt
35,322.4 km
Semi-major
41,654.7 km
B*
0.0000e+0
RAAN
65.9034°
Arg perigee
168.5837°
Mean anomaly
179.0824°
Rev number
2,775

§ Raw data

USA 2861 43446U 18036F   26250.16780765  .00000010  00000+0  00000+0 0  99932 43446   7.3080  65.9034 0011004 168.5837 179.0824  1.02119058 27751

JSON: /api/v1/satellites/43446 · /tle

For live sub-satellite position, see the globe view (requires WebGL).

§ Visibility from observer

Set your observer location to see the next 7 days of passes ≥ 10°. The values pass through the URL so the page stays shareable.

No JS? Fill the form by hand. The geolocation button needs JavaScript.